Location: Penton Mewsey
(51.2167°N, 1.5167°W)
Time: 13:53:18
(UTC+00:00)

USA 234 - Pass Details

Date: 30 March 2020
Orbit: 1102 x 1106 km, 123.0° (Epoch: 14 May)

Event Time Altitude Azimuth Distance (km) Brightness Sun altitude
Rises 20:07:20 0° 58° (ENE) 3,927 5.9 -14.4°
Reaches altitude 10° 20:09:54 10° 62° (ENE) 2,967 5.2 -14.7°
Maximum altitude 20:16:19 55° 140° (SE) 1,307 3.3 -15.6°
Drops below altitude 10° 20:22:42 10° 217° (SW) 2,958 5.6 -16.5°
Sets 20:25:15 0° 222° (SW) 3,914 6.3 -16.9°
